Regional Weather Roundup
Issued by NWS

Home | Current Version | Previous Version | Text Only | Print | Product List | Glossary Off
Versions: 1 2 3 4 5 6 7 8 9 10 11 12 13 14 15 16 17 18 19 20 21 22 23 24 25 26 27 28

000
ASUS45 KCYS 310410
RWRWY

WYOMING REGIONAL WEATHER ROUNDUP
NATIONAL WEATHER SERVICE CHEYENNE WY
1000 PM MDT THU OCT 30 2014

NOTE:  "FAIR" INDICATES FEW OR NO CLOUDS BELOW 12,000 FEET
WITH NO SIGNIFICANT WEATHER AND/OR OBSTRUCTIONS TO VISIBILITY.

WYZ001-310500-
YELLOWSTONE NATIONAL PARK

CITY           SKY/WX    TMP DP  RH WIND       PRES   REMARKS
LK YELLOWSTONE   N/A     30  28  92 NW3       30.32F
W YELLOWSTONE  NOT AVBL

$$
WYZ002>013-054>058-071-098>099-310500-
NORTHERN WYOMING

CITY           SKY/WX    TMP DP  RH WIND       PRES   REMARKS
JACKSON        PTCLDY    36  30  80 N6        30.27S WCI  31
CODY           PTCLDY    41  25  52 S6        30.23
GREYBULL       CLEAR     44  26  49 SE6       30.23S
WORLAND        CLEAR     40  23  50 CALM      30.23F
SHERIDAN       PTCLDY    47  26  44 SE7       30.26F
BUFFALO        PTCLDY    43  25  49 S9        30.32F
GILLETTE       PTCLDY    38  30  73 S8        30.34S WCI  32
HULETT         FAIR      36  32  87 CALM      30.37
NEWCASTLE      FAIR      32  30  93 SE7       30.40R WCI  26

$$
WYZ014>020-022>026-101>103-310500-
CENTRAL WYOMING

CITY           SKY/WX    TMP DP  RH WIND       PRES   REMARKS
BIG PINEY      PTCLDY    35  22  58 CALM      30.32S
PINEDALE       PTCLDY    30  23  74 NW5       30.32  WCI  25
DUBOIS         FAIR      36  27  69 NW3       30.33S
LANDER         PTCLDY    44  27  51 CALM      30.27F
RIVERTON       PTCLDY    40  25  55 NW8       30.28F WCI  34
CASPER         PTCLDY    39  22  50 CALM      30.33R
DOUGLAS        CLEAR     40  29  64 SE14      30.38R WCI  32

$$
WYZ021-027>030-104>119-310500-
SOUTHERN WYOMING

CITY           SKY/WX    TMP DP  RH WIND       PRES   REMARKS
EVANSTON       MOCLDY    49  26  41 E10       30.26F
KEMMERER       MOCLDY    48  27  43 NE10      30.30S
FORT BRIDGER   FAIR      48  27  43 S5        30.30S
ROCK SPRINGS   MOCLDY    47  26  44 SE12      30.29F
RAWLINS        CLEAR     34  17  50 E3        30.34F
SARATOGA       FAIR      37  23  56 SE7       30.36S WCI  32
LARAMIE        CLEAR     39  26  59 SE13      30.39S WCI  31
CHEYENNE       CLEAR     37  27  67 NW3       30.41R
TORRINGTON     CLEAR     37  30  75 E8        30.40R WCI  31
PINE BLUFFS    FAIR      32  27  80 E3        30.41R

$$



USA.gov is the U.S. government's official web portal to all federal, state and local government web resources and services.